Wind_Speed
9 8 7 7 6 5 3 2 2 3 4 5 7 8 9 9 9 9 8 8 8 7 8 8 8 9 9 9 10 11 11 11 11 12 12 13 14 14 14 15 16 16 16 16 15 15 15 14 14
9 9 8 8 8 7 4 3 3 5 5 6 8 10 11 12 11 10 10 8 8 8 8 9 9 10 10 10 11 11 12 12 12 13 13 14 14 15 15 16 16 16 16 16 15 15 16 15 15
9 9 9 9 9 8 5 4 3 4 7 7 9 11 12 12 11 10 10 10 10 9 8 9 9 10 11 11 12 12 13 13 13 13 14 14 15 15 16 16 16 16 16 16 15 15 16 16 16
9 10 10 10 9 8 6 4 4 5 7 9 11 12 13 13 11 11 11 11 10 9 10 10 11 11 12 12 12 13 13 13 13 14 14 15 15 16 16 16 17 16 16 16 16 16 17 17 17
9 10 10 10 9 7 6 4 5 6 8 11 12 12 13 12 12 11 12 12 10 10 11 11 11 12 12 13 13 13 14 14 14 15 15 16 16 17 17 17 17 17 17 17 17 18 18 18 17
9 9 9 10 9 6 4 4 6 6 9 11 12 12 12 12 12 11 11 12 12 11 12 12 12 12 12 13 14 14 14 14 15 16 17 17 17 17 17 17 17 17 18 18 18 19 19 19 18
9 10 10 10 9 6 5 5 8 8 9 11 12 12 12 12 12 10 10 11 12 12 12 13 13 13 14 14 15 14 14 15 15 16 17 17 17 17 17 18 18 18 18 19 19 19 19 19 19
9 10 11 9 8 5 4 5 7 9 8 11 12 13 13 13 12 12 12 12 12 13 13 13 13 14 15 15 16 16 15 16 16 16 17 17 17 17 17 17 17 18 18 19 20 20 20 20 20
8 8 9 9 9 6 6 5 7 10 10 12 13 14 15 15 15 15 14 13 13 13 15 15 14 14 15 15 15 15 15 16 16 17 18 18 17 17 17 17 18 19 19 20 20 20 21 21 21
8 7 6 8 9 7 7 7 9 11 12 14 15 16 16 17 17 16 14 14 14 15 15 16 16 15 15 15 15 15 15 16 16 17 17 17 17 16 17 17 18 19 20 20 20 20 21 22 22
6 6 7 7 7 7 9 9 11 12 14 15 17 18 18 18 17 17 16 15 15 15 16 16 16 17 16 16 15 15 16 16 16 16 16 16 16 17 18 18 19 20 20 21 21 21 22 22 22
5 6 7 7 8 9 11 12 12 13 14 14 16 18 20 20 19 18 17 16 17 17 17 17 17 18 18 16 15 16 16 16 16 17 17 17 18 18 19 19 19 20 20 21 21 22 22 23 23
5 6 7 8 9 10 12 14 15 14 15 17 18 19 19 19 19 19 18 18 19 18 17 17 17 17 17 17 16 16 16 16 16 17 18 18 18 18 19 19 19 20 20 21 21 21 22 22 22
5 5 5 6 10 11 12 14 15 16 16 17 18 19 18 18 18 19 20 20 19 19 19 18 17 17 17 17 17 16 17 18 19 20 19 18 18 19 19 19 18 19 20 20 21 22 22 21 21
3 4 5 7 10 11 14 15 16 17 17 18 19 19 18 19 19 19 20 20 20 20 20 19 17 16 16 17 17 18 18 18 19 19 19 19 19 19 19 19 19 20 20 20 21 21 21 21 21
4 5 6 8 10 12 15 16 16 18 18 18 19 19 19 18 19 19 20 20 21 21 21 19 17 17 17 17 17 18 18 18 18 19 19 20 20 20 20 20 20 20 20 20 20 21 21 21 21
5 6 8 8 10 12 14 16 15 16 16 17 19 19 19 20 20 20 20 20 20 20 20 18 18 17 17 17 18 19 18 18 19 19 19 20 20 20 21 20 19 20 20 20 21 22 22 22 22
7 7 8 9 11 13 15 15 15 14 15 17 18 20 20 20 18 19 20 20 20 18 19 19 19 19 18 18 18 19 19 20 19 19 19 20 21 21 21 20 20 21 21 21 22 22 23 23 22
10 10 10 11 14 16 16 15 15 16 17 19 20 21 19 18 18 19 20 20 20 19 19 19 19 18 18 18 18 18 19 20 20 20 20 20 21 20 21 22 22 22 22 22 23 24 24 24 23
14 14 13 12 14 17 17 17 17 17 19 21 21 22 21 20 19 19 20 20 20 20 19 20 19 18 18 19 19 19 19 20 21 21 20 21 20 21 21 22 23 23 23 24 24 24 24 23 23
14 15 15 16 16 17 18 18 18 19 20 22 23 22 21 21 20 20 20 20 21 20 20 20 20 19 18 18 19 19 20 20 20 21 21 22 22 22 22 21 22 23 24 24 24 24 23 23 23
16 16 17 17 18 18 18 20 20 21 22 23 22 21 21 22 22 21 20 20 20 20 20 21 20 20 19 19 18 19 20 20 20 20 21 22 21 21 20 21 22 23 23 23 23 23 22 22 23
17 18 18 18 19 19 20 21 21 21 21 21 21 21 22 23 23 23 21 20 20 21 21 21 21 21 19 19 19 20 19 19 19 19 20 21 21 21 20 21 23 23 23 23 23 23 22 22 22
18 19 19 19 19 20 20 20 20 21 21 20 20 20 22 22 22 22 20 21 22 21 21 21 21 21 20 19 19 19 19 19 20 20 21 21 21 21 20 21 22 22 22 21 22 22 22 22 22
20 21 21 19 19 19 20 20 19 20 20 19 20 21 21 22 22 21 20 21 20 20 21 21 21 21 20 20 20 19 20 20 21 21 22 21 21 21 21 21 21 21 21 21 21 21 22 22 22
22 22 22 22 22 20 19 20 19 19 19 19 19 20 20 21 22 22 22 21 20 20 20 21 21 21 21 21 21 21 22 21 21 22 21 21 20 20 21 22 21 21 20 21 22 22 22 22 22
22 21 22 22 23 22 20 20 18 17 18 18 17 17 18 19 20 20 20 20 21 21 19 19 20 21 20 21 22 22 22 21 21 21 21 21 20 19 20 21 22 21 21 21 22 22 22 23 23
21 21 21 21 22 22 20 20 18 17 18 18 18 19 20 21 21 20 19 19 20 18 17 18 19 20 20 21 21 22 23 22 20 20 20 21 20 20 20 21 21 21 22 23 23 22 23 23 23
20 20 21 20 20 21 21 19 19 18 17 19 20 21 21 22 21 22 21 21 20 18 17 18 18 19 20 20 21 22 22 20 19 19 19 18 19 19 20 20 20 21 22 23 22 22 22 23 22
20 20 20 21 20 20 21 20 19 19 19 20 19 20 21 22 21 21 20 19 19 18 16 16 17 18 19 20 20 20 19 18 17 17 17 17 18 19 19 19 20 21 21 21 21 22 22 23 23
Wind_Direction
207 207 207 202 207 209 213 227 261 289 300 307 305 307 319 326 326 326 318 314 313 313 309 307 303 300 297 296 296 294 290 288 288 290 291 291 289 289 291 292 291 290 290 288 287 285 283 281 279
206 207 205 206 217 222 226 232 259 284 297 309 305 306 313 320 322 315 310 311 314 316 310 308 307 303 299 297 296 293 290 287 289 290 292 291 290 288 289 290 291 291 290 288 286 285 284 283 279
211 210 205 211 219 220 223 238 266 275 290 299 298 304 309 315 316 309 306 306 309 310 308 307 307 304 300 296 294 293 292 288 286 288 291 289 288 287 287 287 288 288 288 286 285 286 287 285 280
212 210 210 215 216 221 229 239 256 274 291 292 297 302 305 308 308 309 305 303 303 303 301 303 304 302 297 294 292 292 291 288 288 288 290 288 287 287 287 288 287 286 285 285 285 286 284 283 281
209 210 211 217 219 222 234 258 268 291 304 296 295 302 303 305 304 305 304 300 301 303 302 299 302 301 297 293 291 292 290 286 288 288 287 286 287 288 289 289 289 285 284 284 284 284 283 283 281
202 210 215 218 220 229 246 275 289 298 304 299 299 300 297 299 303 304 301 300 304 307 305 299 297 300 300 298 295 292 292 290 290 290 289 287 289 290 290 290 290 287 285 283 284 283 283 282 282
204 208 215 216 221 227 231 259 286 291 293 298 295 296 297 299 299 298 299 299 300 301 301 300 298 298 297 297 295 291 290 289 290 292 290 290 291 291 290 293 290 286 284 283 283 284 283 282 281
202 208 212 215 218 221 240 259 282 288 293 292 291 295 300 305 302 300 294 295 295 296 296 295 294 295 296 296 294 289 288 290 290 291 290 291 291 290 289 291 289 288 287 286 286 284 283 284 283
203 208 210 212 219 230 239 255 280 289 287 288 293 294 302 302 302 299 299 296 293 294 293 292 290 292 293 293 294 292 291 292 293 293 293 291 290 291 292 291 288 288 288 286 286 286 283 282 282
203 206 214 222 225 242 247 256 272 279 280 285 288 293 298 300 302 301 300 298 293 292 294 292 289 290 289 287 290 289 290 290 293 295 294 292 291 293 295 293 289 289 288 286 286 286 286 282 280
202 213 218 230 238 256 263 261 267 279 280 285 289 292 296 297 300 303 304 300 293 292 293 291 289 287 287 283 284 285 286 289 293 295 294 294 294 297 296 293 288 288 289 287 288 288 288 285 283
212 226 238 252 260 264 271 274 272 277 281 283 289 291 294 295 297 300 301 302 296 292 293 293 290 289 287 283 281 283 287 289 291 292 291 292 293 296 298 294 292 291 289 288 288 290 289 287 286
218 231 248 263 267 269 271 273 274 279 283 284 291 292 290 296 299 301 303 302 299 294 293 292 292 288 286 283 281 281 285 287 289 289 292 294 296 298 297 297 296 296 293 291 289 291 291 290 289
231 243 260 270 266 269 270 272 277 285 287 286 291 294 291 294 299 301 302 302 297 295 294 290 289 290 284 284 285 285 288 287 290 292 295 297 297 296 296 295 296 295 295 295 292 292 293 291 289
266 252 259 269 272 276 280 279 285 291 286 286 290 294 290 291 296 298 300 301 297 296 295 293 288 287 286 286 286 287 287 289 291 291 292 294 296 295 293 293 293 294 294 295 295 295 297 295 291
282 279 276 271 278 285 288 287 287 290 287 285 287 292 289 290 293 294 297 299 297 296 296 297 292 290 288 286 288 289 287 287 288 290 291 292 293 292 291 291 293 293 294 296 297 297 298 297 293
276 283 283 285 289 291 293 294 288 288 291 291 292 291 288 291 289 292 294 297 299 296 295 295 298 292 289 288 288 290 289 289 289 292 292 292 293 293 294 294 297 297 296 297 297 297 297 296 293
292 288 285 291 295 295 294 294 296 295 298 296 294 293 289 286 285 291 294 297 301 297 294 293 295 294 292 289 290 292 291 290 291 293 293 293 295 296 296 297 298 299 298 299 297 294 294 294 292
303 297 290 287 293 292 292 292 292 297 295 294 296 294 292 286 287 293 294 297 301 300 297 295 293 294 292 290 289 289 291 292 292 294 294 293 296 297 298 297 298 298 297 297 295 293 293 293 292
303 301 298 291 290 292 291 289 290 292 291 291 295 293 290 287 287 292 294 297 298 298 297 294 294 294 292 290 289 290 294 295 295 295 296 297 298 298 299 300 300 299 298 297 295 294 293 291 290
297 297 297 295 295 293 291 287 285 286 286 286 290 290 286 288 288 289 293 293 295 296 295 294 293 292 290 290 291 295 298 299 298 297 296 299 298 297 296 298 299 299 299 298 296 292 292 291 290
291 289 290 290 292 292 290 285 283 282 286 287 288 286 285 288 288 289 289 290 290 292 291 291 291 291 291 289 290 293 296 297 298 299 299 299 299 297 298 299 301 302 301 300 298 295 292 291 290
294 291 289 287 288 288 285 282 283 284 285 288 287 286 289 290 291 288 289 287 288 292 289 288 289 291 286 287 289 292 293 295 296 299 301 302 300 297 300 302 305 304 301 298 296 295 292 292 291
293 289 287 285 289 290 289 287 282 284 285 286 286 289 293 290 292 292 291 290 291 292 290 289 289 289 288 287 291 292 292 295 297 298 299 299 299 300 303 304 306 305 303 298 296 293 294 295 294
292 294 295 293 293 294 294 292 286 280 278 282 283 284 286 289 292 294 296 296 293 292 291 288 288 287 292 293 292 291 293 294 297 297 297 297 299 301 303 307 307 305 304 301 300 299 298 297 295
295 298 299 297 298 300 300 301 293 283 278 281 283 281 286 288 289 290 292 294 293 292 290 288 287 289 291 293 291 295 294 293 296 296 297 298 300 301 303 306 307 306 303 300 299 299 300 299 297
294 295 296 295 296 298 300 302 295 293 282 281 281 284 287 289 291 292 292 292 292 292 290 286 284 287 289 292 293 294 296 293 295 296 297 297 297 300 303 305 307 307 306 303 300 301 301 301 299
296 299 301 299 298 297 299 303 299 295 288 288 289 290 290 293 294 291 292 290 291 290 288 286 286 289 290 292 295 295 297 293 294 296 296 298 297 300 305 306 307 307 307 307 304 303 302 300 301
298 298 299 303 303 299 299 299 303 297 293 291 289 288 289 293 292 291 290 292 290 289 290 286 288 288 290 292 294 295 297 301 298 297 298 298 299 303 304 305 307 308 309 309 308 305 304 303 304
297 297 297 298 300 299 299 301 302 299 295 292 292 291 289 289 289 289 289 290 291 289 287 286 286 288 291 294 294 296 298 301 300 301 300 301 302 304 305 306 309 310 311 312 312 308 307 307 306
Height
5893 5894 5894 5896 5896 5896 5897 5898 5897 5898 5898 5898 5898 5897 5898 5897 5898 5899 5896 5894 5893 5892 5891 5891 5890 5890 5889 5889 5888 5887 5886 5885 5884 5883 5882 5882 5881 5880 5879 5878 5876 5875 5874 5873 5872 5871 5870 5869 5868
5891 5892 5893 5894 5894 5894 5896 5896 5896 5896 5896 5896 5896 5896 5896 5896 5895 5895 5893 5892 5891 5891 5890 5889 5889 5888 5887 5887 5886 5885 5884 5883 5882 5881 5880 5879 5878 5877 5876 5875 5874 5873 5872 5870 5869 5868 5867 5866 5865
5889 5890 5891 5892 5892 5893 5894 5894 5894 5894 5895 5894 5895 5894 5894 5894 5894 5893 5891 5891 5890 5889 5889 5888 5887 5886 5885 5885 5884 5883 5882 5881 5880 5879 5878 5877 5876 5874 5873 5872 5871 5870 5869 5868 5867 5865 5864 5863 5862
5887 5888 5889 5890 5890 5891 5892 5893 5892 5892 5893 5892 5892 5892 5892 5892 5892 5891 5889 5889 5888 5887 5887 5886 5885 5884 5883 5882 5881 5880 5879 5878 5877 5876 5875 5874 5873 5871 5870 5869 5868 5867 5866 5865 5864 5862 5861 5860 5859
5884 5886 5887 5887 5888 5889 5890 5891 5890 5890 5890 5890 5890 5889 5889 5889 5889 5889 5888 5886 5885 5885 5884 5884 5883 5882 5881 5880 5879 5878 5876 5875 5874 5873 5872 5871 5870 5868 5867 5866 5865 5864 5862 5861 5860 5859 5858 5857 5855
5883 5884 5885 5886 5887 5887 5888 5888 5888 5889 5888 5888 5888 5888 5888 5887 5887 5886 5886 5885 5883 5882 5882 5881 5880 5879 5878 5877 5876 5875 5873 5872 5871 5870 5868 5867 5866 5865 5864 5862 5861 5860 5859 5857 5856 5855 5854 5853 5852
5882 5882 5883 5884 5885 5885 5885 5885 5885 5886 5887 5886 5886 5886 5885 5885 5885 5883 5883 5882 5881 5880 5880 5879 5878 5877 5876 5875 5873 5872 5871 5869 5868 5867 5865 5864 5863 5861 5860 5859 5857 5856 5854 5853 5852 5851 5850 5849 5848
5879 5881 5881 5883 5883 5883 5882 5882 5883 5883 5884 5884 5883 5883 5883 5882 5882 5881 5880 5879 5879 5878 5877 5877 5875 5874 5873 5872 5870 5869 5868 5866 5865 5863 5862 5860 5858 5857 5856 5855 5853 5852 5850 5849 5848 5847 5846 5844 5843
5878 5880 5880 5881 5881 5881 5881 5881 5881 5881 5881 5882 5881 5880 5880 5879 5878 5878 5877 5876 5875 5875 5874 5873 5872 5871 5870 5869 5867 5866 5865 5863 5861 5860 5858 5856 5854 5853 5852 5851 5849 5847 5846 5845 5843 5842 5840 5840 5839
5877 5878 5879 5879 5879 5879 5879 5879 5879 5879 5879 5879 5878 5877 5877 5876 5875 5874 5874 5873 5872 5872 5871 5869 5869 5867 5866 5865 5864 5863 5861 5860 5858 5856 5854 5852 5850 5849 5848 5846 5844 5843 5841 5840 5838 5837 5835 5834 5833
5876 5877 5877 5876 5876 5876 5876 5876 5876 5876 5876 5876 5875 5874 5873 5873 5872 5871 5870 5870 5869 5868 5867 5866 5865 5863 5862 5861 5860 5859 5858 5856 5854 5852 5850 5849 5847 5845 5843 5842 5840 5838 5836 5835 5834 5832 5831 5829 5828
5875 5875 5874 5873 5873 5873 5873 5873 5873 5873 5873 5873 5871 5870 5869 5869 5868 5867 5866 5866 5865 5864 5863 5861 5861 5860 5858 5856 5856 5855 5854 5852 5851 5849 5847 5845 5843 5842 5839 5837 5835 5833 5832 5830 5828 5827 5826 5824 5822
5874 5873 5872 5872 5871 5870 5871 5871 5870 5870 5870 5869 5868 5867 5866 5865 5864 5863 5862 5861 5861 5860 5858 5857 5856 5855 5854 5852 5852 5851 5849 5848 5846 5845 5843 5841 5839 5837 5835 5833 5831 5829 5827 5825 5823 5822 5821 5819 5817
5873 5872 5871 5871 5870 5869 5869 5869 5868 5867 5867 5866 5865 5864 5863 5863 5861 5860 5859 5858 5857 5856 5854 5853 5851 5850 5849 5848 5847 5845 5844 5843 5842 5840 5838 5837 5835 5833 5831 5828 5826 5824 5822 5820 5819 5817 5815 5813 5812
5871 5871 5871 5869 5868 5867 5866 5866 5866 5865 5864 5863 5863 5862 5861 5859 5858 5857 5855 5854 5853 5851 5850 5848 5847 5846 5845 5844 5843 5841 5840 5839 5837 5836 5834 5832 5830 5828 5826 5824 5822 5820 5818 5816 5814 5812 5810 5808 5806
5870 5869 5869 5868 5866 5865 5866 5864 5863 5861 5860 5859 5859 5858 5856 5855 5854 5853 5852 5850 5849 5847 5846 5844 5842 5842 5841 5840 5839 5837 5835 5834 5833 5831 5829 5827 5826 5823 5821 5819 5817 5815 5812 5810 5808 5806 5805 5803 5801
5868 5867 5865 5865 5864 5863 5862 5860 5859 5858 5857 5856 5856 5855 5852 5850 5850 5849 5847 5846 5844 5842 5841 5840 5838 5838 5837 5836 5834 5832 5830 5828 5828 5826 5824 5822 5821 5819 5817 5814 5812 5810 5807 5805 5803 5801 5799 5797 5795
5866 5864 5863 5862 5861 5860 5858 5856 5856 5855 5854 5853 5852 5850 5848 5846 5845 5844 5843 5841 5840 5838 5836 5836 5834 5833 5832 5831 5830 5828 5826 5824 5823 5822 5820 5818 5816 5814 5812 5810 5807 5804 5802 5800 5798 5796 5794 5792 5790
5863 5861 5860 5860 5858 5857 5854 5853 5852 5851 5850 5848 5847 5845 5843 5842 5841 5840 5839 5837 5836 5834 5833 5831 5829 5828 5827 5826 5825 5824 5822 5820 5819 5817 5815 5813 5811 5809 5807 5804 5802 5799 5797 5794 5792 5790 5787 5786 5783
5860 5858 5857 5857 5856 5853 5851 5849 5848 5847 5845 5844 5842 5841 5840 5839 5838 5836 5835 5833 5832 5830 5829 5827 5825 5824 5823 5822 5821 5819 5818 5816 5814 5812 5811 5808 5806 5803 5801 5798 5796 5794 5792 5789 5785 5783 5781 5779 5777
5857 5856 5854 5852 5851 5849 5847 5846 5844 5842 5840 5839 5837 5836 5835 5834 5833 5831 5830 5829 5828 5825 5824 5823 5822 5820 5819 5818 5816 5815 5813 5811 5810 5808 5806 5803 5801 5798 5795 5792 5790 5788 5785 5782 5779 5776 5775 5773 5771
5854 5852 5850 5848 5846 5844 5843 5841 5839 5837 5836 5833 5832 5830 5830 5829 5827 5825 5824 5823 5822 5821 5819 5818 5817 5816 5814 5813 5812 5811 5809 5807 5805 5803 5800 5798 5795 5793 5790 5787 5784 5781 5779 5776 5773 5771 5769 5767 5765
5849 5847 5846 5844 5842 5840 5838 5836 5835 5832 5830 5829 5827 5826 5824 5823 5821 5821 5819 5818 5817 5816 5814 5814 5812 5811 5809 5808 5806 5805 5803 5802 5800 5798 5795 5793 5790 5787 5785 5782 5779 5776 5773 5770 5768 5765 5763 5761 5759
5845 5844 5842 5840 5838 5836 5833 5831 5829 5827 5825 5824 5822 5821 5819 5817 5816 5815 5814 5813 5812 5811 5809 5808 5807 5806 5804 5802 5801 5799 5798 5797 5795 5793 5790 5787 5785 5782 5779 5776 5773 5771 5767 5764 5762 5759 5757 5755 5753
5841 5838 5836 5834 5832 5830 5828 5825 5825 5822 5820 5818 5816 5815 5813 5812 5811 5810 5808 5807 5806 5805 5804 5803 5801 5800 5799 5797 5796 5794 5793 5791 5789 5787 5785 5782 5779 5776 5774 5771 5768 5766 5762 5759 5756 5754 5751 5749 5747
5835 5833 5830 5828 5826 5824 5823 5820 5819 5816 5814 5813 5811 5810 5809 5807 5807 5805 5803 5802 5800 5798 5798 5797 5796 5795 5794 5792 5790 5789 5788 5786 5784 5781 5778 5776 5774 5771 5769 5766 5763 5760 5757 5754 5751 5748 5746 5743 5741
5829 5827 5825 5823 5821 5819 5818 5816 5813 5811 5809 5807 5806 5806 5804 5803 5801 5800 5798 5796 5794 5793 5792 5791 5790 5789 5788 5787 5785 5783 5781 5779 5777 5775 5773 5771 5768 5766 5764 5761 5757 5755 5752 5749 5746 5743 5740 5737 5735
5824 5822 5820 5818 5815 5813 5812 5810 5808 5806 5804 5803 5801 5800 5799 5798 5796 5793 5791 5790 5789 5787 5786 5785 5784 5783 5782 5781 5779 5777 5775 5772 5770 5769 5767 5765 5763 5761 5758 5755 5752 5749 5747 5743 5740 5737 5734 5732 5729
5820 5817 5814 5812 5810 5808 5806 5808 5804 5801 5799 5798 5796 5795 5794 5792 5790 5788 5786 5785 5783 5782 5781 5780 5779 5778 5776 5775 5773 5771 5769 5765 5764 5763 5761 5759 5757 5755 5752 5750 5747 5744 5741 5738 5734 5731 5729 5726 5723
5814 5812 5810 5808 5806 5803 5801 5803 5799 5797 5795 5793 5791 5789 5788 5786 5784 5782 5781 5779 5778 5776 5776 5775 5773 5772 5771 5769 5767 5765 5764 5762 5760 5758 5756 5754 5752 5749 5747 5744 5742 5739 5736 5732 5729 5726 5723 5720 5717